Japanese version Home page |
Updated on October 10, 2020 |
|
Orbital ElementsEpoch 2018 June 11.0 TT = JDT 2458280.5 T 2018 May 26.55861 TT Rudenko q 3.8806835 (2000.0) P Q n 0.09996003 Peri. 133.24602 -0.43127063 +0.87473118 a 4.5981712 Node 109.98005 -0.88085706 -0.35523068 e 0.1560376 Incl. 13.60209 -0.19518322 -0.32963090 P 9.86 From 285 observations 1999 May 12-2020 Sept. 16, mean residual 0".7.
|
Magnitudes Graphm1 = 5.0 + 5 log d + 20.0 log r
|
The orbital elements are published on M.P.E.C. 2020-S188.
|